Location: Amsterdam
(30.7274°N, 84.4357°W)
Time: 19:13:15
(UTC+00:00)

Altair - Pass Details

Date: 09 August 2024
Orbit: 1501 x 1682 km, 47.2° (Epoch: 07 September)

Event Time Altitude Azimuth Distance (km) Brightness Sun altitude
Rises 03:45:17 0° 284° (WNW) 4,643 10.6 -35.6°
Reaches altitude 10° 03:51:42 10° 251° (WSW) 3,645 9.6 -36.4°
Maximum altitude 03:53:47 11° 238° (WSW) 3,571 9.4 -36.6°
Enters shadow 03:55:10 11° 229° (SW) 3,604 9.3 -36.8°
Drops below altitude 10° 03:55:51 10° 224° (SW) 3,643 - -36.9°
Sets 04:02:20 0° 191° (SSW) 4,637 - -37.6°
